^^
Station Historical Data
Daily Summary for February 28, 2017 Units:  Metric    English   Both
« Previous Day
Next Day »
Daily Weekly Monthly Yearly Custom
  High: Low: Average:
Temperature: 35.8 °C 25 °C 28.6 °C
Dew Point: 16.1 °C 1.3 °C 6.6 °C
Humidity: 42% 17% 26%
Wind Speed: 32km/h 0km/h 4.5km/h
Wind Gust: 33.8km/h - -
Wind- - South
Pressure: 1005.3 hPa 1002.3 hPa -
Precipitation: 0 mm    
Historical Graphs
 
 
Tabular Data for February 28, 2017
Time Temperature Dew Point Pressure Wind Wind Speed Wind Gust Humidity Rainfall Rate (Hourly) solar Conditions
00:00 29.6 °C 2 °C 1004.6 hPa WSW 16.3 km/h 16.3 km/h 17% 0 mm 0.0 W/m2
00:05 29.6 °C 2 °C 1005 hPa WSW 7.9 km/h 12.9 km/h 17% 0 mm 0.0 W/m2
00:10 29.5 °C 1.9 °C 1005.3 hPa WSW 13 km/h 13 km/h 17% 0 mm 0.0 W/m2
00:16 29.4 °C 1.8 °C 1005.3 hPa WSW 9.7 km/h 11.3 km/h 17% 0 mm 0.0 W/m2
00:21 29.5 °C 1.9 °C 1005.3 hPa Calm     17% 0 mm 0.0 W/m2
00:26 29.4 °C 1.8 °C 1005 hPa Calm     17% 0 mm 0.0 W/m2
00:31 29.4 °C 1.8 °C 1004.6 hPa Calm     17% 0 mm 0.0 W/m2
00:36 29.2 °C 2.4 °C 1004.6 hPa Calm     18% 0 mm 0.0 W/m2
00:47 28.6 °C 2 °C 1004.6 hPa Calm     18% 0 mm 0.0 W/m2
00:52 28.4 °C 1.8 °C 1004.6 hPa Calm     18% 0 mm 0.0 W/m2
00:58 28.2 °C 2.4 °C 1004.6 hPa Calm     19% 0 mm 0.0 W/m2
01:03 28.1 °C 2.3 °C 1004.6 hPa Calm     19% 0 mm 0.0 W/m2
01:08 27.9 °C 2.1 °C 1004.6 hPa Calm     19% 0 mm 0.0 W/m2
01:13 27.7 °C 2 °C 1004.6 hPa Calm     19% 0 mm 0.0 W/m2
01:19 27.7 °C 2 °C 1004.6 hPa Calm     19% 0 mm 0.0 W/m2
01:24 27.6 °C 1.9 °C 1004.6 hPa Calm     19% 0 mm 0.0 W/m2
01:29 27.6 °C 1.9 °C 1004.6 hPa Calm     19% 0 mm 0.0 W/m2
01:35 27.5 °C 1.8 °C 1004.6 hPa Calm     19% 0 mm 0.0 W/m2
01:40 27.3 °C 1.7 °C 1004.6 hPa Calm     19% 0 mm 0.0 W/m2
01:45 27.1 °C 2.2 °C 1004.6 hPa Calm     20% 0 mm 0.0 W/m2
01:50 27.1 °C 2.2 °C 1004.6 hPa Calm     20% 0 mm 0.0 W/m2
01:55 27.1 °C 2.2 °C 1004.6 hPa Calm     20% 0 mm 0.0 W/m2
02:00 27 °C 2.1 °C 1004.6 hPa Calm     20% 0 mm 0.0 W/m2
02:06 27 °C 2.1 °C 1004.3 hPa Calm     20% 0 mm 0.0 W/m2
02:11 26.9 °C 2 °C 1004.3 hPa Calm     20% 0 mm 0.0 W/m2
02:21 26.7 °C 1.9 °C 1004.3 hPa Calm     20% 0 mm 0.0 W/m2
02:26 26.6 °C 1.8 °C 1004.3 hPa Calm     20% 0 mm 0.0 W/m2
02:31 26.4 °C 1.6 °C 1004.3 hPa Calm     20% 0 mm 0.0 W/m2
02:36 26.4 °C 1.6 °C 1003.9 hPa Calm     20% 0 mm 0.0 W/m2
02:41 26.7 °C 1.9 °C 1003.9 hPa Calm     20% 0 mm 0.0 W/m2
02:46 26.8 °C 2 °C 1004.3 hPa Calm     20% 0 mm 0.0 W/m2
02:57 27 °C 1.4 °C 1003.9 hPa Calm     19% 0 mm 0.0 W/m2
03:02 26.9 °C 1.3 °C 1003.9 hPa Calm     19% 0 mm 0.0 W/m2
03:07 26.9 °C 1.3 °C 1003.9 hPa Calm     19% 0 mm 0.0 W/m2
03:12 26.7 °C 1.9 °C 1003.9 hPa Calm     20% 0 mm 0.0 W/m2
03:17 26.4 °C 1.6 °C 1003.9 hPa Calm     20% 0 mm 0.0 W/m2
03:22 26.4 °C 1.6 °C 1003.9 hPa Calm     20% 0 mm 0.0 W/m2
03:28 26.5 °C 1.7 °C 1003.9 hPa Calm     20% 0 mm 0.0 W/m2
03:34 26.4 °C 1.6 °C 1003.9 hPa Calm     20% 0 mm 0.0 W/m2
03:44 26.1 °C 1.4 °C 1003.9 hPa Calm     20% 0 mm 0.0 W/m2
03:54 25.7 °C 1.7 °C 1003.9 hPa Calm     21% 0 mm 0.0 W/m2
03:59 25.6 °C 1.6 °C 1003.9 hPa Calm     21% 0 mm 0.0 W/m2
04:04 25.6 °C 1.6 °C 1003.9 hPa Calm     21% 0 mm 0.0 W/m2
04:09 25.5 °C 2.2 °C 1003.9 hPa Calm     22% 0 mm 0.0 W/m2
04:14 25.4 °C 2.1 °C 1003.9 hPa Calm     22% 0 mm 0.0 W/m2
04:24 25.3 °C 2.1 °C 1003.9 hPa Calm     22% 0 mm 0.0 W/m2
04:30 25.2 °C 2 °C 1003.9 hPa Calm     22% 0 mm 0.0 W/m2
04:35 25.1 °C 1.9 °C 1003.9 hPa Calm     22% 0 mm 0.0 W/m2
04:40 25.1 °C 1.9 °C 1003.9 hPa Calm     22% 0 mm 0.0 W/m2
04:45 25.1 °C 2.5 °C 1003.6 hPa Calm     23% 0 mm 0.0 W/m2
04:50 25.1 °C 2.5 °C 1003.6 hPa Calm     23% 0 mm 0.0 W/m2
04:56 25.1 °C 2.5 °C 1003.6 hPa Calm     23% 0 mm 0.0 W/m2
05:01 25 °C 3 °C 1003.6 hPa Calm     24% 0 mm 0.0 W/m2
05:06 25 °C 3 °C 1003.6 hPa Calm     24% 0 mm 0.0 W/m2
05:11 25.1 °C 3.1 °C 1003.6 hPa Calm     24% 0 mm 0.0 W/m2
05:16 25.2 °C 2.6 °C 1003.6 hPa Calm   1.6 km/h 23% 0 mm 0.0 W/m2
05:21 25.4 °C 2.8 °C 1003.6 hPa Calm     23% 0 mm 0.0 W/m2
05:27 25.6 °C 2.9 °C 1003.6 hPa Calm     23% 0 mm 0.0 W/m2
05:32 25.8 °C 3.1 °C 1003.6 hPa Calm     23% 0 mm 0.0 W/m2
05:37 25.9 °C 3.2 °C 1003.6 hPa Calm     23% 0 mm 0.0 W/m2
05:42 25.8 °C 3.7 °C 1003.6 hPa Calm     24% 0 mm 0.0 W/m2
05:47 25.8 °C 3.7 °C 1003.6 hPa Calm     24% 0 mm 0.0 W/m2
05:52 25.9 °C 4.4 °C 1003.6 hPa Calm     25% 0 mm 0.0 W/m2
05:57 26 °C 5 °C 1003.6 hPa Calm     26% 0 mm 0.0 W/m2
06:03 26.1 °C 5.1 °C 1003.9 hPa Calm     26% 0 mm 0.0 W/m2
06:14 26.2 °C 5.7 °C 1003.9 hPa Calm     27% 0 mm 0.0 W/m2
06:20 26.3 °C 5.8 °C 1003.9 hPa Calm     27% 0 mm 0.0 W/m2
06:31 26.5 °C 6.5 °C 1003.9 hPa Calm     28% 0 mm 0.0 W/m2
06:33 26.6 °C 7.6 °C 1003.9 hPa Calm     30% 0 mm 0.0 W/m2
06:47 26.3 °C 7.3 °C 1004.3 hPa Calm     30% 0 mm 7.0 W/m2
06:56 25.7 °C 7.3 °C 1004.3 hPa Calm     31% 0 mm 12.0 W/m2
07:02 25.5 °C 7.1 °C 1004.3 hPa Calm     31% 0 mm 16.0 W/m2
07:04 25.4 °C 7 °C 1004.3 hPa Calm     31% 0 mm 23.0 W/m2
07:15 25.3 °C 7.4 °C 1004.3 hPa Calm     32% 0 mm 33.0 W/m2
07:26 25.6 °C 8.6 °C 1004.6 hPa Calm     34% 0 mm 60.0 W/m2
07:34 26.5 °C 12.5 °C 1004.6 hPa WSW 1.4 km/h 8 km/h 42% 0 mm 114.0 W/m2
07:42 26.5 °C 12.5 °C 1004.6 hPa WSW 1.4 km/h 8 km/h 42% 0 mm 114.0 W/m2
07:54 28.9 °C 13.9 °C 1004.6 hPa WNW 13 km/h 22.5 km/h 40% 0 mm 179.0 W/m2
08:05 29.4 °C 14 °C 1004.6 hPa NW 7.9 km/h 24.1 km/h 39% 0 mm 221.0 W/m2
08:13 29.7 °C 14.3 °C 1004.6 hPa North 24.1 km/h 29 km/h 39% 0 mm 258.0 W/m2
08:15 29.8 °C 14.4 °C 1004.6 hPa North 27.4 km/h 30.6 km/h 39% 0 mm 272.0 W/m2
08:23 29.8 °C 14.4 °C 1004.6 hPa North 19.5 km/h 27.4 km/h 39% 0 mm 292.0 W/m2
08:25 29.9 °C 14.4 °C 1004.6 hPa North 14.3 km/h 32.2 km/h 39% 0 mm 309.0 W/m2
08:30 29.9 °C 14.8 °C 1004.6 hPa North 16.3 km/h 29 km/h 40% 0 mm 327.0 W/m2
08:40 30.1 °C 14.6 °C 1004.6 hPa North 11.1 km/h 29 km/h 39% 0 mm 364.0 W/m2
08:57 30.3 °C 14.8 °C 1005 hPa North 13 km/h 33.8 km/h 39% 0 mm 394.0 W/m2
09:05 30.6 °C 15.5 °C 1005 hPa North 32 km/h 32.2 km/h 40% 0 mm 448.0 W/m2
09:20 30.8 °C 15.2 °C 1005 hPa North 13 km/h 19.3 km/h 39% 0 mm 499.0 W/m2
09:35 31.1 °C 15.5 °C 1005 hPa North 20.9 km/h 24.1 km/h 39% 0 mm 548.0 W/m2
09:50 31.2 °C 15.6 °C 1005 hPa North 13 km/h 20.9 km/h 39% 0 mm 596.0 W/m2
10:01 31.3 °C 15.3 °C 1005 hPa North 13 km/h 25.7 km/h 38% 0 mm 621.0 W/m2
10:22 31.8 °C 15.7 °C 1005 hPa North 16.3 km/h 27.4 km/h 38% 0 mm 668.0 W/m2
10:37 32 °C 15.5 °C 1004.6 hPa North 17.7 km/h 24.1 km/h 37% 0 mm 710.0 W/m2
10:45 32.5 °C 15.9 °C 1004.6 hPa North 11.1 km/h 24.1 km/h 37% 0 mm 733.0 W/m2
10:51 32.7 °C 15.7 °C 1004.6 hPa NNE 14.3 km/h 25.7 km/h 36% 0 mm 758.0 W/m2
11:06 33.2 °C 16.1 °C 1004.6 hPa North 19.5 km/h 25.7 km/h 36% 0 mm 788.0 W/m2
11:21 33.6 °C 16 °C 1004.3 hPa NNE 14.3 km/h 30.6 km/h 35% 0 mm 817.0 W/m2
11:36 34.2 °C 15.1 °C 1003.9 hPa North 9.7 km/h 24.1 km/h 32% 0 mm 849.0 W/m2
11:51 34.4 °C 14.8 °C 1003.9 hPa Calm   20.9 km/h 31% 0 mm 895.0 W/m2
12:06 34.8 °C 14.1 °C 1003.9 hPa North 14.3 km/h 20.9 km/h 29% 0 mm 951.0 W/m2
12:21 35.4 °C 14.1 °C 1003.6 hPa North 13 km/h 17.7 km/h 28% 0 mm 940.0 W/m2
12:36 35.8 °C 13.9 °C 1003.3 hPa North 14.3 km/h 19.3 km/h 27% 0 mm 243.0 W/m2
12:51 35.2 °C 13.9 °C 1003.3 hPa NW 17.7 km/h 22.5 km/h 28% 0 mm 278.0 W/m2
13:12 34.7 °C 13.5 °C 1003.3 hPa North 17.7 km/h 22.5 km/h 28% 0 mm 279.0 W/m2
13:16 35.5 °C 12.5 °C 1002.9 hPa Calm     25% 0 mm 1151.0 W/m2
13:32 35.5 °C 11.8 °C 1002.9 hPa North 7.9 km/h 24.1 km/h 24% 0 mm 457.0 W/m2
13:53 35.4 °C 11.8 °C 1002.6 hPa Calm   6.4 km/h 24% 0 mm 330.0 W/m2
14:09 35.5 °C 11.8 °C 1002.6 hPa North 9.7 km/h 14.5 km/h 24% 0 mm 425.0 W/m2
14:22 35.4 °C 11.8 °C 1002.6 hPa Calm   17.7 km/h 24% 0 mm 383.0 W/m2
14:31 35.4 °C 11.8 °C 1002.3 hPa NW 7.9 km/h 16.1 km/h 24% 0 mm 411.0 W/m2
14:32 35.3 °C 11 °C 1002.6 hPa North 6.4 km/h 17.7 km/h 23% 0 mm 443.0 W/m2
14:39 35.4 °C 10.4 °C 1002.3 hPa North 9.7 km/h 12.9 km/h 22% 0 mm 394.0 W/m2
Canyon Roadhouse, Fishriver Canyon, Namibia
Compliments of Weather Underground - 2.25 mb